[[{"header":{"parameterUnit":"m.s-1","parameterCategory":1,"la1":30.2991,"la2":30.254,"lo1":-89.0895,"lo2":-89.0444,"dy":0.0017,"dx":0.0017,"nx":28,"ny":28,"refTime":"2025-08-12T21:00:00:Z","depth":0,"parameterNumber":2,"parameterNumberName":"U-component_of_WINDS"},"data":[0,0,0,0,0,0,0,0,0,0,0,0,0,0,0,0,0,0,0,0,0,0,0,0,0,0,0,0,0,0,0,0,0,0,0,0,0,0,0,0,0,0,0,0,0,0,0,0,0,0,0,0,0,0,0,0,0,0,1.318,1.3181,0,1.3242,1.3242,1.3243,1.3277,1.3277,1.3277,1.3277,1.334,1.3341,1.3343,0,0,0,0,0,0,0,0,0,0,0,0,0,1.3093,1.3094,1.318,1.3181,1.3182,1.3241,1.3242,1.3243,1.3277,1.3277,1.3277,1.3277,1.3339,1.3341,1.3343,0,0,0,0,0,0,0,0,0,0,0,0,0,1.314,1.3095,1.318,1.3206,1.3209,1.3241,1.3242,1.3243,1.3277,1.3277,1.3277,1.3277,1.3339,1.3341,1.3343,1.3355,0,0,1.335,1.3351,0,0,0,0,0,0,0,0,1.3137,1.3143,1.3201,1.3204,1.3207,1.3252,1.3235,1.3281,1.3277,1.3251,1.3277,1.3277,1.331,1.3315,1.3326,1.3358,1.3361,1.3351,1.3352,1.3353,1.3354,0,0,0,0,0,0,0,1.3134,1.3141,1.3204,1.3202,1.3206,1.3214,1.3221,1.3243,1.3279,1.3253,1.3256,1.3263,1.3312,1.3324,1.3328,1.3361,1.3351,1.3353,1.3354,1.3355,1.3409,1.3409,0,0,0,0,0,0,1.3127,1.3138,1.3202,1.3206,1.3172,1.3216,1.3224,1.3237,1.3279,1.3285,1.3262,1.3264,1.332,1.3325,1.333,1.3348,1.3353,1.3355,1.3357,1.3409,1.3409,1.3409,0,0,0,0,0,0,1.3125,1.3132,1.32,1.3173,1.3182,1.3217,1.3232,1.3238,1.325,1.3286,1.3292,1.3268,1.332,1.3327,1.3349,1.3351,1.3356,1.3358,1.3409,1.3409,1.3409,1.3383,0,0,0,0,0,0,1.3122,1.3131,1.3135,1.3173,1.3183,1.3217,1.3232,1.3239,1.3254,1.3257,1.3293,1.3299,1.3321,1.3345,1.3351,1.3354,1.336,1.3409,1.3409,1.3409,1.3384,1.3382,1.3381,0,0,0,0,0,1.3119,1.3125,1.3135,1.3143,1.319,1.3217,1.3223,1.3248,1.3254,1.3259,1.3283,1.3298,1.335,1.3347,1.3354,1.3358,1.3409,1.3409,1.3409,1.3385,1.3382,1.3381,0,0,0,0,0,0,1.3086,1.313,1.3142,1.3161,1.3185,1.3223,1.323,1.3245,1.3268,1.3269,1.33,1.3308,1.3327,1.3345,1.3341,1.3373,1.3381,1.3382,1.336,1.3359,1.3357,1.3352,1.3362,0,0,0,0,0,1.3081,1.31,1.3138,1.315,1.3162,1.3194,1.3207,1.3224,1.3251,1.3261,1.3286,1.3311,1.3333,1.3347,1.3369,1.3387,1.3396,1.3393,1.3391,1.339,1.3391,1.3403,1.3403,1.3409,1.3409,1.3409,0,0,1.3071,1.3097,1.3107,1.3145,1.3165,1.3185,1.3202,1.3221,1.3236,1.3264,1.3287,1.3306,1.3336,1.3357,1.3367,1.3372,1.3391,1.339,1.3388,1.339,1.3403,1.3403,1.3402,1.3409,1.3409,1.3409,0,0,1.3062,1.3084,1.3098,1.3119,1.3151,1.3172,1.3176,1.3212,1.3226,1.325,1.3272,1.329,1.3327,1.3348,1.3364,1.3366,1.3381,1.3373,1.3364,1.3376,1.3375,1.3375,1.3377,1.3377,1.3373,1.3373,1.3373,0,1.3045,1.3075,1.3103,1.3121,1.3138,1.3165,1.318,1.3199,1.3236,1.3247,1.3253,1.3302,1.3324,1.335,1.3351,1.3363,1.3368,1.3368,1.3373,1.3373,1.3373,1.3375,1.3376,1.3372,1.3372,1.3372,1.3372,0,1.3053,1.3074,1.3081,1.3118,1.3135,1.3152,1.3183,1.3197,1.3214,1.3235,1.326,1.3288,1.3317,1.3325,1.3341,1.3355,1.3357,1.3367,1.3376,1.3371,1.3374,1.3375,1.337,1.3371,1.3371,1.3371,0,0,1.3023,1.3077,1.3079,1.3097,1.3136,1.3152,1.3171,1.3201,1.3213,1.3238,1.3255,1.3288,1.3298,1.3316,1.3335,1.3345,1.3347,1.3355,1.3356,1.3353,1.3365,1.3357,1.3358,1.3358,1.3358,1.3358,1.3363,0,1.302,1.3055,1.3082,1.3107,1.3127,1.3155,1.3172,1.3197,1.3218,1.3239,1.3262,1.3285,1.3297,1.3308,1.332,1.3344,1.335,1.3344,1.3374,1.3375,1.3366,1.3359,1.335,1.3353,1.3364,1.3364,1.3365,0,1.302,1.3047,1.3074,1.3113,1.3122,1.3136,1.3167,1.3186,1.3217,1.3231,1.3252,1.3273,1.3295,1.3302,1.3333,1.3329,1.3343,1.3358,1.3358,1.3362,1.3369,1.3362,1.3355,1.3355,1.3366,1.3366,1.3366,0,1.2997,1.3039,1.3061,1.3075,1.3121,1.3131,1.315,1.3181,1.3198,1.3224,1.3236,1.3264,1.328,1.3302,1.333,1.3333,1.3359,1.3368,1.3372,1.3372,1.3376,1.3375,1.337,1.3385,1.3385,1.3385,1.3385,0,1.2991,1.3006,1.3051,1.3065,1.3084,1.3116,1.3134,1.3156,1.3183,1.3202,1.3228,1.3245,1.3281,1.3303,1.3325,1.3348,1.3355,1.3368,1.3374,1.3366,1.3364,1.3375,1.3376,1.3385,1.3385,1.3385,1.3385,0,1.2967,1.2997,1.3024,1.3066,1.3077,1.3089,1.3125,1.314,1.3164,1.3187,1.3195,1.3231,1.3259,1.3289,1.3326,1.3341,1.3363,1.3371,1.3353,1.3356,1.3359,1.3358,1.336,1.3363,1.3376,1.3375,1.3375,0,1.296,1.2973,1.3018,1.3033,1.3052,1.3075,1.3093,1.3126,1.3143,1.3181,1.3191,1.3221,1.3246,1.3288,1.3319,1.3348,1.3357,1.3356,1.3361,1.3353,1.3357,1.3356,1.3358,1.3354,1.3354,1.3353,1.3353,0,1.2946,1.2962,1.2986,1.3018,1.3039,1.3064,1.3091,1.3102,1.314,1.3158,1.3187,1.3207,1.3246,1.3275,1.3309,1.3329,1.3348,1.3351,1.3354,1.3346,1.3335,1.3341,1.3349,1.3351,1.3351,1.3351,1.3351,1.3352,1.2931,1.2945,1.2979,1.3007,1.3031,1.3056,1.3072,1.3099,1.3124,1.3158,1.3176,1.3205,1.3238,1.3285,1.3305,1.3328,1.3334,1.3338,1.3339,1.3339,1.3337,1.3331,1.3335,1.3335,1.3335,1.3335,1.3335,0,1.2919,1.2943,1.2968,1.3006,1.3028,1.3045,1.3076,1.3093,1.3119,1.3148,1.3173,1.3207,1.3236,1.327,1.3301,1.3314,1.3323,1.3321,1.332,1.3325,1.333,1.3325,1.3313,1.3313,1.3313,1.3313,1.3313,1.3313,1.2915,1.294,1.296,1.2997,1.3021,1.305,1.3067,1.3091,1.3114,1.3151,1.3176,1.3198,1.323,1.3264,1.3292,1.3302,1.3312,1.3307,1.3319,1.3323,1.3324,1.3326,1.3321,1.3309,1.3309,1.3312,1.3312,1.3312]},{"header":{"parameterUnit":"m.s-1","parameterCategory":1,"la1":30.2991,"la2":30.254,"lo1":-89.0895,"lo2":-89.0444,"dy":0.0017,"dx":0.0017,"nx":28,"ny":28,"refTime":"2025-08-12T21:00:00:Z","depth":0,"parameterNumber":3,"parameterNumberName":"V-component_of_WINDS"},"data":[0,0,0,0,0,0,0,0,0,0,0,0,0,0,0,0,0,0,0,0,0,0,0,0,0,0,0,0,0,0,0,0,0,0,0,0,0,0,0,0,0,0,0,0,0,0,0,0,0,0,0,0,0,0,0,0,0,0,2.8614,2.8615,0,2.8712,2.8714,2.8715,2.8778,2.8779,2.8779,2.8779,2.8874,2.8876,2.8878,0,0,0,0,0,0,0,0,0,0,0,0,0,2.8473,2.8475,2.8614,2.8615,2.8616,2.8712,2.8714,2.8715,2.8778,2.8779,2.8779,2.878,2.8873,2.8876,2.8878,0,0,0,0,0,0,0,0,0,0,0,0,0,2.8549,2.8476,2.8614,2.866,2.8665,2.8712,2.8714,2.8715,2.8778,2.8779,2.8779,2.878,2.8872,2.8876,2.8879,2.8886,0,0,2.8888,2.889,0,0,0,0,0,0,0,0,2.8544,2.8554,2.8652,2.8656,2.8662,2.8734,2.8699,2.8772,2.8778,2.8735,2.8779,2.878,2.8826,2.8833,2.885,2.8891,2.8895,2.8889,2.8891,2.8892,2.8893,0,0,0,0,0,0,0,2.8539,2.855,2.8653,2.8653,2.8659,2.8673,2.8684,2.8713,2.8776,2.8739,2.8743,2.8755,2.8829,2.8847,2.8853,2.8896,2.8889,2.8891,2.8893,2.8895,2.8945,2.8944,0,0,0,0,0,0,2.8527,2.8545,2.865,2.8656,2.8604,2.8675,2.8688,2.871,2.8776,2.8786,2.8754,2.8757,2.8841,2.8849,2.8857,2.8869,2.8892,2.8895,2.8897,2.8945,2.8944,2.8944,0,0,0,0,0,0,2.8524,2.8536,2.8646,2.8602,2.8617,2.8677,2.8701,2.8712,2.873,2.8787,2.8798,2.8761,2.8842,2.8852,2.8878,2.8873,2.8896,2.8899,2.8946,2.8945,2.8944,2.8893,0,0,0,0,0,0,2.852,2.8535,2.854,2.8602,2.8619,2.8668,2.8701,2.8713,2.8736,2.8741,2.8797,2.8807,2.8843,2.8873,2.8881,2.8877,2.8902,2.8947,2.8945,2.8944,2.8895,2.889,2.8886,0,0,0,0,0,2.8515,2.8521,2.854,2.8552,2.8627,2.8667,2.8677,2.8721,2.8735,2.874,2.8776,2.8805,2.8872,2.8875,2.8885,2.8882,2.8947,2.8946,2.8944,2.8897,2.8891,2.8886,0,0,0,0,0,0,2.8456,2.853,2.8552,2.8579,2.8616,2.8678,2.8686,2.8713,2.8746,2.875,2.8801,2.8813,2.8833,2.886,2.8863,2.8891,2.8913,2.8913,2.8873,2.8868,2.8863,2.8856,2.8905,0,0,0,0,0,2.8446,2.8475,2.8537,2.8554,2.8572,2.8625,2.8644,2.8675,2.8715,2.8731,2.877,2.8806,2.8835,2.8853,2.8883,2.8899,2.8911,2.8902,2.8897,2.8893,2.8893,2.8901,2.8897,2.8939,2.8939,2.8939,0,0,2.8426,2.847,2.8485,2.8544,2.8577,2.8602,2.8638,2.8665,2.8684,2.8734,2.8762,2.8791,2.8834,2.8855,2.8866,2.8878,2.8883,2.8891,2.8887,2.889,2.8899,2.8895,2.8891,2.8938,2.8939,2.8939,0,0,2.8403,2.844,2.8458,2.849,2.854,2.8574,2.8578,2.8636,2.8657,2.8686,2.8724,2.8746,2.8795,2.8824,2.8845,2.883,2.8857,2.8838,2.8814,2.8822,2.8818,2.8816,2.8809,2.8806,2.8838,2.8838,2.8838,0,2.8371,2.8415,2.8463,2.8487,2.8511,2.8559,2.8576,2.8604,2.8659,2.8673,2.8686,2.8749,2.8781,2.8808,2.8805,2.882,2.8825,2.8832,2.8815,2.8813,2.8811,2.8805,2.8803,2.8835,2.8835,2.8836,2.8836,0,2.8372,2.8401,2.8409,2.8464,2.8488,2.8508,2.8557,2.8575,2.8603,2.8635,2.8662,2.8703,2.8741,2.8749,2.8776,2.878,2.8786,2.8806,2.8828,2.8804,2.8799,2.8797,2.8831,2.8832,2.8833,2.8834,0,0,2.8316,2.8396,2.8398,2.8423,2.848,2.8502,2.8522,2.8562,2.8576,2.8611,2.8629,2.8669,2.8688,2.8711,2.8741,2.8748,2.8732,2.8768,2.877,2.8759,2.8736,2.872,2.8716,2.8749,2.8749,2.8749,2.8732,0,2.8301,2.8344,2.8387,2.8413,2.8439,2.8484,2.8502,2.8537,2.8567,2.8591,2.8624,2.8651,2.8675,2.8689,2.8698,2.8732,2.8727,2.8734,2.8764,2.8764,2.8752,2.8714,2.8698,2.868,2.873,2.873,2.873,0,2.829,2.8325,2.8355,2.8408,2.842,2.8436,2.8474,2.8497,2.8537,2.8558,2.8584,2.8615,2.8637,2.8656,2.8684,2.8688,2.8702,2.872,2.8721,2.8725,2.8746,2.8717,2.8675,2.8672,2.8728,2.8728,2.8728,0,2.8245,2.8299,2.8324,2.8343,2.8406,2.8415,2.8441,2.8482,2.8502,2.8534,2.8547,2.8581,2.8599,2.8623,2.8661,2.8672,2.8685,2.8708,2.8701,2.87,2.8702,2.8702,2.8662,2.8712,2.8712,2.8712,2.8712,0,2.8223,2.8239,2.8304,2.8319,2.8337,2.8385,2.84,2.843,2.8465,2.8484,2.8524,2.8541,2.8591,2.8613,2.8643,2.8661,2.8669,2.8685,2.8693,2.8682,2.8679,2.8692,2.8694,2.8711,2.8712,2.8712,2.8712,0,2.8177,2.8221,2.825,2.8307,2.8321,2.8332,2.8379,2.8394,2.8426,2.8449,2.8457,2.8507,2.8534,2.8575,2.8615,2.8635,2.8648,2.8661,2.8635,2.8639,2.863,2.863,2.8597,2.8594,2.8646,2.8645,2.8645,0,2.816,2.8174,2.8232,2.8248,2.8274,2.83,2.832,2.8366,2.8386,2.8431,2.8439,2.847,2.8498,2.8539,2.8576,2.8606,2.862,2.8606,2.8624,2.8612,2.8618,2.8617,2.8618,2.8601,2.8601,2.86,2.8599,0,2.8126,2.8147,2.8176,2.8213,2.8236,2.8267,2.8299,2.8309,2.8362,2.8381,2.8411,2.8432,2.8472,2.8501,2.8536,2.856,2.8587,2.8593,2.8593,2.8582,2.8566,2.8573,2.8622,2.8594,2.8594,2.8595,2.8595,2.8595,2.8093,2.8107,2.8149,2.818,2.8209,2.8237,2.8254,2.8287,2.8313,2.8351,2.8376,2.8403,2.844,2.849,2.8512,2.8532,2.8544,2.8544,2.8544,2.8543,2.8539,2.8563,2.8539,2.8539,2.8539,2.8539,2.8539,0,2.806,2.809,2.8117,2.8161,2.8184,2.821,2.8246,2.8263,2.8287,2.832,2.8346,2.8378,2.8407,2.8446,2.8476,2.8485,2.8498,2.8491,2.8491,2.8495,2.8527,2.8524,2.848,2.848,2.848,2.848,2.848,2.848,2.8046,2.8069,2.8094,2.8131,2.816,2.8189,2.8207,2.8232,2.8259,2.8294,2.8318,2.8344,2.8378,2.8411,2.8437,2.8447,2.8456,2.8445,2.8459,2.8488,2.8493,2.8499,2.8496,2.8447,2.8447,2.8426,2.8426,2.8426]}]]